Ping Pong Board
บอร์ด: คนไทยเก่งปิงปอง
บอร์ด: การแข่งขันทั่วไทย
บอร์ด: พูดคุยทั่วไป-สินค้ามือ 2
บอร์ด: สินค้ามือสอง On FB
บอร์ด: แปลงสินทรัพย์เป็นทุน
บอร์ด: ขายสินค้าใหม่ มือ 1
บอร์ด: รีวิวอุปกรณ์
บอร์ด : รีวิวอุปกรณ์ On FB
บอร์ด: เทคนิคการเล่นปิงปอง
บอร์ด: การเมืองเรื่องปิงปอง
บอร์ด: บริจาคอุปกรณ์เหลือใช้
บอร์ด: ปรึกษาอาการบาดเจ็บ
บอร์ด: ปิงปองทุกจังหวัด
บอร์ด: ชมรมคนเล่นยางเม็ด
บอร์ด: จับแบบไม้จีน ไม้ญี่ปุ่น
บอร์ด: สนทนาภาษาปิงปอง
บอร์ด: นัดกันไปเรียน ไปเล่น
บอร์ด: Chat Online
บอร์ด: เล่นเกมส์ปิงปอง
บอร์ด: เกมส์ออนไลน์
สำหรับสมาชิก
นามปากกา
รหัสผ่าน
ลืมรหัสผ่าน
สมัครสมาชิกใช้งาน
กระทู้โดนใจชาวปิงปอง
สถานที่รับสอนปิงปอง
บอร์ดซื้อขายสินค้ามือสอง และพูดคุยแลกเปลี่ยนความคิดเห็นกัน
ตั้งกระทู้-เฉพาะกีฬาปิงปอง
ค้นหาข้อมูล :
ค้นหาจาก :
@เรื่อง.........FromAnswer-ReaderLast Answer
ขายยางกะเค้ามั่งดีกว่า [Zhip]Tokiha12/116215/9/2551 6:49:45
ขายไม้boll forte ของบัต และขายยาง 3แผ่น คนขายที่ไม่เอาเปรียบ12/115915/9/2551 0:49:25
ระเบียบการแข่งขันเทเบิลเทนนิส All Thailand 2008 Circuit 5 จ.ภูเก็ต : 10-12 ต.ค.51 friendship7290/63614/9/2551 22:39:19
ใครรู้บอกหน่อย นักเรียน1/79314/9/2551 22:13:54
ขายไม้ combination ultra 85% กรคุง1/64914/9/2551 21:48:07
คนที่เคยใช้ยางสองรุ่นนี้ ช่วยรีวิวเปรียบเทียบให้ด้วยครับ ช้าง1/97714/9/2551 12:04:52
แถวชลบุรี ศรีราชา มีร้านขายอุปกรณ์ปิงปองที่ใหนบ้าง หนังเหนียว0/134214/9/2551 10:50:41
ขายยางดังต่อไปนี้ครับ 0Timo015/110314/9/2551 9:09:57
ขายยางสภาพใหม่มากกกกกกกกกกก Xjapan3/118414/9/2551 3:02:53
ช่วยแนะนํา Top spin พุ่งๆ ด้วยคับ atorza2/132413/9/2551 13:44:58
w/o คุณชาย1/83713/9/2551 12:56:10
ขอเชิญส่งแรงใจ เชียร์ปิงปองคนพิการไทย คว้าชัยพาราลิมปิค SuperSpins17/449013/9/2551 12:41:57
โพสรูปไม้ YASAKA Gatien Extra s ยาง Sliver ที่จะขายไว้ด้วยครับ FBI_5011/69313/9/2551 11:13:42
แนะนำไม้ให้หน่อยครับ vasin3/72313/9/2551 10:23:02
ขายยาง Hallmark green power kitty1230/58913/9/2551 9:42:43
ดาวรุ่ง หายไปไหน หัดเดิน4/92513/9/2551 7:50:28
ใครใช้ Andro KINETIC CF CARBO-ARAMID OFF แนะนําหน่อย atorza9/168112/9/2551 22:07:03
ขายไม้sardiusรุ่นเก่าครับสภาพ80%ราคา1500ครับ โทรมาคุยได้/กับไม้xiom stradivairousสภาพดี95%ราคา1500 akeser6/143912/9/2551 15:10:43
ขายไม้ sardius 80% ราคา 2000 ครับ เซ็งเป็ด17/128212/9/2551 6:55:20
รับซื้อปิงปองสองรุ่น clubsnoop0/68312/9/2551 0:04:35
อยากได้ยางเม็ดยาวมือสองของ Dr. หรือ Hall ก็ได้ และก็ไม้ Hallmark Integral หรือของ Dr.ก็ได้ - newsxman1/75311/9/2551 23:33:38
อยากได้ยาง yasaka - fusion clubsnoop0/62911/9/2551 23:11:37
ขายไม้ไฟวอ สภาพ ประมาน 85% ไม่มีรอยครับ แต่ด้านดำนิดนึง กรคุง4/78711/9/2551 22:12:43
รับซื้อ ไม้ Stiga clipper wrb หรือ stiga ตัวอื่นลอง post มาก่อนครับ member2/75711/9/2551 19:38:58
อยากได้โต๊ะปิงปอง Butterfly มือ2 blacknazi0/79711/9/2551 17:27:55
ในความคิดของคุณ pingpong_crazy0/65911/9/2551 15:48:09
JanOve Waldner Apollo0/83611/9/2551 13:29:47
*** รับซื้อไม้ Butterfly Primorac Carbon ครับ *** ส้มตำยายผิน2/79511/9/2551 8:36:43
ด่วน! รายงานผลปิงปองคนพิการในพาราลิมปิคส์ 2008 ที่จีน SuperSpins14/225210/9/2551 23:07:12
ปิงปอง จ.อุตรดิตถ์ ก็กำลังกลับมากับเค้าเหมือนกัน~* Toppycandy2/102410/9/2551 21:04:05
ต้องการซื้อโต๊ะปิงปอง มุมหมุน0/78410/9/2551 15:30:47
รับซื้อยาง ชางมิน0/57910/9/2551 14:35:10
ยางปิงปอง KOKUTAKU รุ่น 868 ฟองน้ำญี่ปุ่นสภาพ 80% Sudoku7/133410/9/2551 13:56:22
ประชาสัมพันธ์การแข่งขันคอมเทคคัพครั้งที่ 3 satid4/148310/9/2551 10:32:35
ช่วยแนะนำไม้สวยๆให้ทีครับ cabal15/116910/9/2551 10:30:11
มีงบ 2000 บาทหาซื้อไม้ มือ2 สภาพดี +ยางสีดำ Toppycandy2/93610/9/2551 9:34:48
ต้องการซื้อ Keyshot light ครับ testman1/77110/9/2551 1:33:25
นำเสนอ joola0/6599/9/2551 15:13:11
โปรแกรมการแข่งขันเทเบิลเทนนิส All Thailand 2008 Circuit 4 จ.มหาสารคาม : 12-14 ก.ย.51 friendship7290/6899/9/2551 14:23:52
ช่วยบอกที min left1/7479/9/2551 13:50:05
ผลการแข่งขัน Galaxy cup # 5 ซูราซากิ1/9109/9/2551 11:17:28
ประชาสัมพันธ์ เรื่อง รองเท้าปิงปอง Mizuno puayhaha12/59109/9/2551 9:29:05
ต้องการซื้อไม้ Sardius Nokia0/6718/9/2551 23:33:29
กาวที่คุณคิดว่าดีที่สุดคือกาวอะไร aekkub0055/11198/9/2551 13:52:25
table tennis all thailand คุณชาย2/8818/9/2551 13:24:57
ช่วยรีวิวยาง Plasma Woman และ Plasma 430 ทีคับ atorza1/7838/9/2551 11:21:26
ลองอ่านดูน่ะคับ เป็นท่าน ท่านคิดเช่นไร ART_7/10398/9/2551 10:24:46
ยาง DHS เก็บได้หมด0/8158/9/2551 9:31:37
รวมยางที่แรงๆคับ แนะนําด้วยคับ atorza0/8528/9/2551 6:30:11
ขาย ยาง But Tenergy 05 ดำ สภาพ 90% เป็นต่อ1/8097/9/2551 18:43:28
ขอรายงานข่าวนะคะ นักปิงปองไทย คว้าชัยเหนือสวีเดนใน พาราลิมปิคเกมส์ อ้อเอง1/7517/9/2551 18:40:31
ขอเชิญทุกท่านมาร่วมให้กำลังใจนักกีฬาเทเบิลเทนนิสใน พาราลิมปิคเกมส์ กันเยอะๆนะคะ อ้อเอง0/6587/9/2551 18:27:48
ด่วน !!! ปอม(สุพรรณ)0/7467/9/2551 14:37:02
รับซื้อไม้ timo ball spirit - ST yendi0/5487/9/2551 11:52:20
อยากได้เสื้อli-ning บอย13070/6737/9/2551 9:45:05
ช่วยแนะนำเรื่องของยาง Andro หน่อยครับผม Godzent_butterfly3/10007/9/2551 0:34:26
ถามผู้รู้ ช่วยรีวิว ROXON เทียบกับ PRYDE หน่อยครับ ขลุ่ยฝรั่ง4/9766/9/2551 21:49:24
ช่วย Review ยาง Roxon ด้วยคับ atorza0/6726/9/2551 21:42:37
เรื่องของยาง pingpong_crazy1/6816/9/2551 16:57:34
ขาย Plasma 700 ครับ ปอม(สุพรรณ)1/6426/9/2551 16:51:47
ผลการแข่ง SERI PINGPONG แอบมอง3/14386/9/2551 12:07:41
ถามเรื่องยางครับ liptonlemon0/5926/9/2551 3:36:12
ขาย schlager cabon ครับด้าม fl สภาพ85%ราคา 1500ขาดตัวครับ akeser4/10976/9/2551 0:04:33
อยากได้ gergeryหรือgergery21 ครับ BBzaa0/6985/9/2551 23:55:59
เชิญสมัครแข่งขันคอมเทคคัพครั้งที่ 3 ด่วน satid0/6675/9/2551 22:41:58
รับสอนโดยนักกีฬาทีมชาติชุดปัจจุบัน luntao0/7515/9/2551 21:00:45
ขายเครื่องยิงลูกปิงปอง chicken7/9945/9/2551 20:35:36
ต้องการซื้อ ไม้ Almutart สภาพดีคับ 97883/9135/9/2551 18:03:04
เอาไม้ใหม่มาโชว์ครับเพิ่งได้วันนี้เอง liptonlemon8/12105/9/2551 16:59:05
ยาง JO Silver ด้านดําคับ สภาพ 99% 950 บาท มีของแถมด้วย atorza3/7625/9/2551 16:56:22
วันนี้ไม่ได้ไปเล่นปิงปอง...บริจาคเลือดมา num_yut11/8715/9/2551 16:52:48
เมืองพัทยาจัดแข่งปิงปอง 26-28 ก.ย. 2551 เงาปิงปอง0/7885/9/2551 13:28:11
Palio 1997 VS Yasaka MarkV M2 kimminsu5/15045/9/2551 13:14:56
แนะนำสิ่งที่มีประโยชน์และน่าสนใจเกี่ยวกับการฝึกปิงปองครับ Pakorn-Pingponginter3/17615/9/2551 11:34:31
ขายไม้ Timo Ball Spirit ST ค๊าพ สนใจอ่านด้านในฮับ angerra10/10175/9/2551 2:04:20
เชิญเข้าร่วมการแข่งขัน GALAXY CUP #5 "Return" 6-7 กันยายน ณ ศูนย์ฝึกปิงปอง ห้างสรรพสินค้าฟิวเจอร์ปาร์ค บางแค friendship7297/17864/9/2551 21:08:10
ขายไม้ Timo boll spirit FL และ Tibhar samsonov alpha Vinsent12/24774/9/2551 16:50:06
paraffin tuning !!! ใช้น้ำมันพาราฟิน เป็น บูสเตอร์ แทนสปีดกลู ขลุ่ยฝรั่ง1/12384/9/2551 14:36:24
อ.ปากช่อง มีที่ตีปิงปองไหมครับ??? tttomtam2/9604/9/2551 11:11:35
ผมต้องการซื้อไม้ Donic Black devil หรือ Sardius ในราคา 2000 มือสอง ต้องการอย่างแรง10/12554/9/2551 7:52:23
อยากได้ไม้มือ 2 ของ butterfly ครับ golf4/7954/9/2551 7:50:40
อยากได้ sadius za002/7114/9/2551 2:22:10
นักปิงปองไทยในอังกฤษ น้อย Hallmark1/15894/9/2551 1:56:54
ขายไม้ timo boll xxs + ยาง archraz2/8273/9/2551 23:25:05
ขายไม้ Andro KINETIC CF CARBON OFF+ akeairxoil1/6933/9/2551 22:15:40
ขอเสียงเด็กอุดรธานีหน่อยครับ Boom4/9763/9/2551 20:52:38
ขางยาง Plasma Womam ครับ* paeza0/6573/9/2551 13:13:23
ยาง ที่เน้น SPIN และ Control ความแรงพอดีคับ atorza2/9523/9/2551 11:36:34
ถามเรื่องยาง min left2/6883/9/2551 11:35:58
แนะนำไม้ที่เบาๆหน่อย บอย13072/8653/9/2551 11:22:36
ขายไม้และยางครับ Vinsent24/19023/9/2551 11:11:19
ระวังของปลอมครับ Owen0/10333/9/2551 1:26:57
Plasma Woman atorza1/7092/9/2551 22:50:00
ยางสองตัวนี้จะเวริคมั้ยคับ atorza2/9482/9/2551 18:28:58
ผมอยู่แถวลาดพร้าวครับอยากทราบว่ามีที่ไหนบ่างที่สอนและให้เช่าโต๊ะ... father475/9632/9/2551 16:15:43
ใครมี vdo การแข่งขันปิงปองซีเกมส์ที่โคราชบ้างครับ tooprajaw0/7192/9/2551 15:38:39
ต้องการยาง Hammond ธรรมดา หรือ Pro ก็ได้ด้านแดง เจคับ0/6022/9/2551 15:09:31
รับสอนโดยนักกีฬาทีมชาติชุดปัจจุบัน luntao0/8552/9/2551 14:59:36
อุดนธานี Boom9/15402/9/2551 14:36:49
เข้ามาดูให้หน่อยว่า คนนี้อะใคร PingPong9/12622/9/2551 14:34:56
ถึงคุณ liptonlemon มิตรภาพ1/6352/9/2551 14:21:46
หาเพื่อนคู่หูซ้อมปิงปองคับ 08310054890/7142/9/2551 14:21:05
ผลการออกสลากกินแบ่งรัฐบาล งวด วันที่ 1 กันยายน 2551 num_yut1/7362/9/2551 13:06:22
มีแข่งที่ไหนบอกเรานะ tweety2/6272/9/2551 13:03:50
ขายไม้ Sardius พร้อมยาง No.203/11252/9/2551 10:05:12
รับซื้อยาง skyline 2 สภาพดี ๆ ครับ kitty1232/6732/9/2551 8:55:51
หาที่ซ้อม wijitnet0/5871/9/2551 23:44:18
นันทนาตอบรับร่วมเล่นลีกลูกเด้งเมืองเบียร์ ART_0/6531/9/2551 22:18:46
รับซื้อf3 หรือ coppa gold หรือ coppa silver สภาพ90% up คร้าบ อยากซื้อ5/8221/9/2551 20:33:48
อยากสมัครเป็นครูสอนปิงปอง มาแล้ว1/10841/9/2551 18:49:36
หาที่เรียนปิงปอง มาแล้ว1/7271/9/2551 18:03:28
จัดแข่ง SERI Pingpong Training Fair Play 3วันที่ 30/31 สิงหาคม 2551 Pingpong Training3/14561/9/2551 16:09:47
ถามผู้มีประสบการณ์ เป็นไปได้ไหม เอาเม็ดสั้นมาตีไกลโต๊ะ yoohoo1/8041/9/2551 16:06:25
ไม้ andro SUPER CORE CARBON LIGHT OFF+ ใส่ยางอะไรดีครับ ๐CoMunYong๐1/8391/9/2551 15:56:04
ช่วยตอบหน่อยครับ tapakorn0/6641/9/2551 13:44:59
เปิดรับสมัครผู้สนใจหาที่เรียนปิงปองช่วงปิดเทอมครับ เก่งไม้จีน42/26181/9/2551 13:21:44
หาที่เรียนปิงปอง มาแล้ว0/6231/9/2551 13:19:04
อยากเรียนปิงปอง GuPeTcH0/5731/9/2551 10:19:35
ใครมีทริกการตัดยางมั้งหรอครับ adroit4/8921/9/2551 10:11:22
ใครอยากเล่นปิงปองแถวเทพารักษ์รายงานตัวด้วยครับ golf2710/80331/8/2551 22:58:13
รับยาง Fusion,Sriver หรือPariO HK 1997 vasin1/69531/8/2551 21:35:23
รับยางFusion vasin0/52031/8/2551 20:55:06
รับสอนปิงปอง แถวลำลูกกาครับ ปิยรมย์15/155331/8/2551 20:12:10
ต้องการทราบที่ซ้อม แถวมหิดลศาลายา มีบ้างไหม ลูกเด้ง9/167431/8/2551 19:54:49
รับ andro SUPER CORE CARBON LIGHT OFF มือ2สภาพสวย ๐CoMunYong๐4/76731/8/2551 17:22:14
ขายยาง Donic Jo silver ด้านดําสภาพ 99 % คับ atorza7/87431/8/2551 16:52:07
สนาม-เทพารักษ num_yut19/118831/8/2551 1:52:37
รับยาง Bryce FX หรือ Bryce speed หรือ Bryce ขอ90% นะครับ pongnarak101/66131/8/2551 0:32:04
รับซื้อไม้ปิงปอง butterfly cresail หรือ yasaka panther OH_CNX0/84430/8/2551 23:46:15
ขอผลการคัดเลือกนักกีฬาปิงปองเยาวชนแห่งชาติตัวแทนกรุงเทพมหานครด้วยครับ wit_pituk4/95230/8/2551 22:53:23
ใครเคยใช้ยาง nittaku narucross ex soft ด้านแดงมั่งคับ toonspy0/75630/8/2551 21:53:07
รับไม้andro SUPER CORE CARBON LIGHT ALL+กับWALDNER DOTEC ALLROUND บอย13071/68430/8/2551 12:08:46
...Rangking เดือนกันยายน มีการอัพเดทใหม่ impingpong2/74130/8/2551 11:16:00
ขายยาง 2 แผ่น สุดท้ายครับ paeza2/74430/8/2551 8:33:14
ผลออลไทยแลนด์ คุณชาย5/111930/8/2551 0:09:46
Carbonix WRB กับ tube carbo Wanghaoน้อย0/68730/8/2551 0:00:41
Donic Donic BLACK DEVIL ยาง F1สภาพประมาน90% ต้องการแลก pongnarak1031/142929/8/2551 22:14:36
VSG 21 - 1000 pingpong_crazy0/76529/8/2551 21:51:47
อยากเสิร์ฟได้แบบนี้ต้องหัดยังไงบ้างครับ จับแบบแชคแฮนจะเสิร์ฟได้ไหม Virus1/95029/8/2551 12:27:00
ต้องการซื้อโต๊ะปิงปองมือสองด่วนครับ ผิวส้ม1/77729/8/2551 12:26:04
เชิญเข้าร่วมการแข่งขันเทเบิลเทนนิส PEA TABLETENNIS 2008 bonus1/110429/8/2551 12:25:32
ใครใช้ Andro Cleaning Spray มั่งคับแนะนําหน่อย atorza1/62829/8/2551 12:25:13
รับไม้ M.Maze ครับ ขอ สภาพดี Apollo1/65629/8/2551 12:22:56
มี sadius อยากแลกกับ cofferlait สภาพดีๆ sadius136/135129/8/2551 0:18:14
อยากเล่นปิงปองไว้สอนลูก กระสุน0/67528/8/2551 23:22:34
รับสอนปิงปอง โดย ปลา สุทธิลักษณ์ รัตนประยูร คลิก! luntao1/172328/8/2551 23:02:29
ต้องการเรียนปิงปอง มากครับ SuperJew2/76828/8/2551 22:29:01
นักปิงปองไทยทำไมบ้าอุปกรณ์จัง........... BENQ14/165228/8/2551 10:18:10
สรุปอันดับคะแนนนักกีฬาเทเบิลเทนนิส ณ วันที่ 1 กันยายน 2551 friendship7290/66527/8/2551 22:48:36
Europe's best player at Olympics 2008 "นักกีฬาจากค่ายยุโรปที่ดีที่สุดในการแข่งขันกีฬาโอลิมปิค" DONIC5/99327/8/2551 18:26:36
โปรโมชั่น ยาง&ไม้ใหม่ที่ยังไม่เคยใช้ แลกสินค้าใหม่...ซูราซากิฯ ซูราซากิ2/90127/8/2551 13:20:18
โปรโมชั่น ยาง&ไม้เก่า แลกสินค้าใหม่...ซูราซากิฯ ซูราซากิ1/96527/8/2551 13:19:36
[b] [font:red] Ranking ใหม่ 1 ก.ย. 51 ออกแล้วนะคับ [/font] [/b] nut_pingponginter0/61227/8/2551 7:42:18
มี schlager carbon ต้องการแลก ข้าวหน้าปลาใหล12/96226/8/2551 23:24:59
ขาย ซาเดียส สภาพ 80% 2000 ครับ เซ็งเป็ด3/77526/8/2551 23:19:43
พี่ป๊อกท่าเรือ Marshiboro2/91726/8/2551 21:02:37
ขาย Andro Roxon 450 แดง ฟองน้ำ MAX ใหม่มากๆใช้ครั้งเดียวเพิ่งซื้อ THE KOP6/107926/8/2551 13:03:41
น่าเห็นใจคนซื้อต่อไปคงขายยากขึ้น nssc6/106825/8/2551 22:12:26
ขายไม้คีชอตครับ pankung3/90525/8/2551 21:35:36
ช่วยเข้ามาแนะนํายางด้วยคับ atorza1/62425/8/2551 17:04:38
ช่วยแนะนําไม้ให้ด้วยคับ atorza1/74725/8/2551 17:03:15
รดแลกแจกแถมกันไปเต็มๆ innova ราคา 500บาท เท่านั้น ด่วน!!!!!!!!!!!!! คนขายที่ไม่เอาเปรียบ0/78425/8/2551 17:02:12
มารีวิวให้ผมทีครับ adroit1/99925/8/2551 17:01:43
สมาคมฯ จะเริ่มตรวจกาวเมื่อไหร่ มีรายละเอียดอย่างไร เหน่ง1/80325/8/2551 16:51:30
ขายยาง friendship cross สีดำ ถูกๆ economist5/96025/8/2551 12:18:41
Olympics 2008 [singles] videos ขลุ่ยฝรั่ง3/103525/8/2551 12:02:46
ต้องการหาซื้อ Keyshot light FL สภาพดี ด่วน mean011/70625/8/2551 8:09:34
หน้าบอร์ดมันกว้างไปหน่อยหรือเปล่าครับ ดูไม่ค่อยสะดวก ขลุ่ยฝรั่ง0/63524/8/2551 23:43:15
Fari Chack VS 3K pingpong_crazy0/69224/8/2551 21:48:52
วันนี้ชิงชนะเลิศชายเดี่ยวครับ s.phrae5/97924/8/2551 20:08:36
ขออนุญาตขาย ยาง oOPlYoo0/60024/8/2551 17:45:21
ไม้ Firehand แลก ไม้ Keyshot light พร้อมเพิ่มเงินให้ครับ mean010/74024/8/2551 12:02:10
หน้าไม้ fire hand Marshiboro0/70024/8/2551 0:55:57
ช่วย review ไม้ปิงปอง Yasaka Malin Carbon หน่อยครับ raphee1/227323/8/2551 23:10:29
ขายไม้จีน Andro Kevlar Carbon/Kinetic CF+ยาง Andro Revolution ราคา 1200 บาท raphee0/78123/8/2551 19:36:01
ขายไม้ ))))))))))))4/109523/8/2551 19:04:34
ขายไม้ moobeam Tibhar - Chila และยาง Joola Air ครับ กาละแม6/127023/8/2551 18:38:13
.......เชิญชมการคัดเลือกนักกีฬาปิงปองเยาวชนแห่งชาติตัวแทนกรุงเทพมหานคร impingpong1/88023/8/2551 11:31:16
ช่วยรีวิวไม้เปล่าให้หน่อยครับ ๐CoMunYong๐0/72923/8/2551 10:47:26
ใช้ sadius ต้องตียังไง sadius11/84123/8/2551 10:36:30
vote ครับ อยากเปิดสอนระหว่าง เดอะมอล ราม กับ บางกะปิ panther6/73922/8/2551 23:43:46
หญิงเดี่ยวโอลิมปิค 2008 s.phrae0/80622/8/2551 23:08:26
โปรแกรมการแข่งขันวันที่ 22 ส.ค.ครับ s.phrae2/80322/8/2551 17:47:22
ชายเดี่ยว 4 คนสุดท้ายโอลิมปิก 2008 เหน่ง3/81322/8/2551 17:32:29
ขายยาง sriver g2 fx สีแดง toonspy4/86322/8/2551 15:28:20
New ITTF Rule will be implemented in next 2 weeks...... Pimple Lover0/66922/8/2551 15:08:57
ชางยี่นิงเปลี่ยนไม้เป็นbut.photinoแล้ว ชางมิน2/98222/8/2551 14:57:56
ช่วยรึวิวไม้บัตMasunovกับClearfieldหน่อยครับขอคุณครับ BBzaa3/73622/8/2551 14:43:32
อยากรู้ว่า ไม้ แคนก่า พาวเวอร์ สปิน ใช้ดี ใหม ครับ suttatam2/76622/8/2551 12:49:58
สนใจขายยางมือสองด้านแดง ของ stga มาทางนี้ครับ เจ้าแห่งเม็ด0/64622/8/2551 11:13:51
เสียใจกับนันทนาด้วยครับ FBI_5017/103522/8/2551 11:10:05
ว่าด้วยเรื่องตัวย่อของไม้ DHS Herricane series ครับ แมวน้อยนอนอุตุ1/97622/8/2551 7:27:45
ช่วยแนะนําไม้ของ Donic ด้วยคับเอาแรงๆ atorza2/77722/8/2551 7:22:01
แนะ "ปิงปองสาว" แต่งหวิว!! กระชากเรตติ้ง naomi4/142621/8/2551 23:59:49
ช่วยแนะนำหน่อยครับเพิ่งหัดเล่นปิงปอง ๐CoMunYong๐2/77621/8/2551 22:51:56
แนะนำลูกที่ใช้สำหรับฝึกฝน ด้วยครับ coffee guide2/70621/8/2551 22:41:55
นันทนาไม่ท้อสู้ต่ออีก4ปีลอนดอนเกมส์ ART_3/102821/8/2551 21:04:41
the mall บางกะปิ มีที่ตีปิงปองไหมครับ panther1/83021/8/2551 15:51:24
ช่อง 5 กำลังถ่ายปิงปองครับ 14.05 น. s.phrae0/66721/8/2551 14:07:49
ขายไม้ kreanga cabon 2500 แถมอีก1ไม้ครับ biotech2/94421/8/2551 11:54:34
Page :  1  2  3  4  5  6  7  8  9  10  11  12  13  14  15  16  17  18  19  20  21  22  23  24  25  26  27  28  29  30  31  32  33  34  35  36  37  38  39  40  41  42  43  44  45  46  47  48  49  50  51  52  53  54  55  56  57  58  59  60  61  62  63  64  65  66  67  68  69  70  71  72  73  74  75  76  77  78  79  80  81  82  83  84  85  86  87  88  89  90  91  92  93  94  95  96  97  98  99  100  101  102  103  104  105  106  107  108  109  110  111  112  113  114  115  116  117  118  119  120  121  122  123  124  125  126  127  128  129  130  131  132  133  134  135  136  137  138  139  140  141  142  143  144  145  146  147  148  149  150  151  152  153  154  155  156  157  158  159  160  161  162  163  164  165  166  167  168  169  170  171  172  173  174  175  176  177  178  179  180  181  182  183  184  185  186  187  188  189  190  191  192  193  194  195  196  197  198  199  200  201 
[ First ] [<< back ] [ next>> ] [ Last ]  
VIP SPONSOR

 

ห้ามอย่านำสินค้าหนีภาษี - สินค้าหิ้วเข้ามาเอง - สินค้าปลอม มาจำหน่ายในเวปนี้
 
© 2020 All Rights Reserved
Powered by
ThaiWebWizard.com